FW2887 Weather Reports


Display with metric or nautical units.
time (UTC)temp
F
wind
direction
speed
MPH
gust
MPH
rain 1hr
in
rain 24hr
in
rain mn
in
humidity
%
barometer
mb
20260502221731 56 111 0.0 0.0 0.00 0.03 0.03 79 1012.1
20260502221240 56 321 0.0 0.0 0.00 0.03 0.03 78 1012.0
20260502220722 56 321 0.0 0.0 0.00 0.03 0.03 77 1012.0
20260502220222 56 111 0.0 0.0 0.00 0.03 0.03 77 1011.9
20260502215732 56 321 0.0 0.0 0.00 0.03 0.03 77 1012.0
20260502215214 56 321 0.0 0.0 0.00 0.03 0.03 76 1011.8
20260502214713 57 321 0.0 0.0 0.00 0.03 0.03 75 1011.8
20260502214222 57 111 0.0 0.0 0.00 0.03 0.03 75 1011.8
20260502213725 57 111 0.0 0.0 0.00 0.03 0.03 76 1011.7
20260502213232 57 321 0.0 0.0 0.00 0.03 0.03 75 1011.7
20260502212732 57 321 0.0 0.0 0.00 0.03 0.03 74 1011.8
20260502212216 57 321 0.0 0.0 0.00 0.03 0.03 74 1011.8
20260502211744 57 112 0.0 0.0 0.00 0.03 0.03 73 1011.7
20260502211224 57 111 0.0 0.0 0.00 0.03 0.03 72 1011.8
20260502210730 57 321 0.0 0.0 0.00 0.03 0.03 72 1011.9
20260502210232 57 111 0.0 0.0 0.00 0.03 0.03 72 1011.9
20260502205714 57 111 0.0 0.0 0.00 0.03 0.03 74 1011.8
20260502205223 57 321 0.0 0.0 0.00 0.03 0.03 73 1011.8
20260502204724 57 111 0.0 0.0 0.00 0.03 0.03 72 1011.9
20260502204225 57 95 0.0 0.0 0.00 0.03 0.03 72 1011.9
20260502203753 57 95 0.0 0.0 0.00 0.03 0.03 74 1011.8
20260502203216 57 96 0.0 0.0 0.00 0.03 0.03 72 1011.9
20260502202727 57 95 0.0 0.0 0.00 0.03 0.03 73 1011.9
20260502202228 58 96 0.0 0.0 0.00 0.03 0.03 73 1011.9
20260502201729 58 96 0.0 0.0 0.00 0.03 0.03 73 1011.8
20260502201238 58 96 0.0 0.0 0.00 0.03 0.03 73 1011.9
20260502200717 57 95 0.0 0.0 0.00 0.03 0.03 72 1011.8
20260502200219 57 60 0.0 0.0 0.00 0.03 0.03 71 1011.8
20260502195726 57 61 0.0 0.0 0.00 0.03 0.03 72 1011.9
20260502195227 57 62 0.0 0.0 0.00 0.03 0.03 71 1011.9
20260502194727 57 49 0.0 0.0 0.00 0.03 0.03 72 1012.0
20260502194236 57 49 0.0 0.0 0.00 0.03 0.03 71 1012.0
20260502193716 57 321 0.0 0.0 0.00 0.03 0.03 69 1012.2
20260502193225 57 48 0.0 0.0 0.00 0.03 0.03 69 1012.3
20260502192726 57 48 0.0 0.0 0.00 0.03 0.03 71 1012.3
20260502192230 57 49 0.0 0.0 0.00 0.03 0.03 70 1012.2
20260502191718 57 179 0.0 0.0 0.00 0.03 0.03 72 1012.3
20260502191217 57 321 0.0 0.0 0.00 0.03 0.03 72 1012.3
20260502190717 57 52 0.0 0.0 0.00 0.03 0.03 72 1012.3
20260502190223 57 51 0.0 4.0 0.00 0.03 0.03 72 1012.4
20260502185745 57 51 0.0 5.0 0.00 0.03 0.03 73 1012.4
20260502185232 57 51 2.0 5.0 0.00 0.03 0.03 73 1012.4
20260502184732 57 31 0.0 0.0 0.00 0.03 0.03 76 1012.5
20260502184238 56 37 0.0 3.0 0.00 0.03 0.03 77 1012.6
20260502183718 56 321 0.0 3.0 0.00 0.03 0.03 76 1012.6
20260502183220 56 321 0.0 0.0 0.00 0.03 0.03 78 1012.6
20260502182724 55 321 0.0 0.0 0.00 0.03 0.03 77 1012.7
20260502182226 55 321 0.0 0.0 0.00 0.03 0.03 79 1012.8
20260502181730 55 79 0.0 0.0 0.00 0.03 0.03 77 1012.9
20260502181239 55 321 0.0 0.0 0.00 0.03 0.03 77 1013.0
20260502180727 55 76 0.0 0.0 0.00 0.03 0.03 78 1013.1
20260502180226 55 102 0.0 0.0 0.00 0.03 0.03 78 1013.1
20260502170229 54 62 0.0 0.0 0.00 0.03 0.03 81 1013.3
20260502164227 54 321 0.0 0.0 0.00 0.03 0.03 82 1013.8
20260502163746 53 321 0.0 0.0 0.00 0.03 0.03 82 1014.0
20260502163232 53 53 0.0 0.0 0.00 0.03 0.03 82 1014.2
20260502162714 53 43 0.0 0.0 0.00 0.03 0.03 81 1014.3
20260502162242 53 75 0.0 0.0 0.00 0.03 0.03 81 1014.4
20260502161724 54 64 0.0 0.0 0.00 0.03 0.03 82 1014.4
20260502161232 54 39 0.0 0.0 0.00 0.03 0.03 82 1014.6
20260502160712 54 39 0.0 0.0 0.00 0.03 0.03 83 1014.5
20260502160215 54 39 0.0 0.0 0.00 0.03 0.03 83 1014.4
20260502152230 54 51 0.0 0.0 0.01 0.03 0.03 84 1014.0
20260502151752 54 38 0.0 0.0 0.01 0.03 0.03 84 1014.0
20260502151239 54 38 0.0 0.0 0.01 0.03 0.03 84 1014.2
20260502150720 54 37 0.0 0.0 0.01 0.03 0.03 85 1014.2
20260502150220 54 37 0.0 0.0 0.01 0.03 0.03 85 1014.3
20260502130725 53 355 0.0 0.0 0.01 0.01 0.01 78 1013.4
20260502130252 53 350 0.0 0.0 0.01 0.01 0.01 79 1013.4
20260502123730 53 8 0.0 0.0 0.01 0.01 0.01 80 1013.3
20260502123237 53 311 0.0 0.0 0.01 0.01 0.01 81 1013.2
20260502122740 53 298 0.0 0.0 0.01 0.01 0.01 81 1013.1
20260502122220 53 32 0.0 0.0 0.01 0.01 0.01 81 1012.9
20260502121728 53 336 0.0 0.0 0.01 0.01 0.01 81 1012.9
20260502121232 53 336 0.0 0.0 0.00 0.00 0.00 82 1012.9
20260502120714 53 336 0.0 0.0 0.00 0.00 0.00 82 1012.9
20260502120221 53 98 0.0 0.0 0.00 0.00 0.00 82 1013.1
20260502115751 53 351 0.0 0.0 0.00 0.00 0.00 82 1013.0
20260502115229 52 353 0.0 0.0 0.00 0.00 0.00 83 1012.9
20260502114757 52 357 0.0 0.0 0.00 0.00 0.00 83 1013.1
20260502113717 52 242 0.0 0.0 0.00 0.00 0.00 83 1013.1
20260502113227 52 242 0.0 0.0 0.00 0.00 0.00 83 1013.0
20260502112730 53 240 0.0 0.0 0.00 0.00 0.00 82 1013.0
20260502112256 53 321 0.0 0.0 0.00 0.00 0.00 82 1013.1
20260502111714 53 321 0.0 0.0 0.00 0.00 0.00 82 1013.2
20260502111245 53 321 0.0 0.0 0.00 0.00 0.00 82 1013.3
20260502110724 53 321 0.0 0.0 0.00 0.00 0.00 82 1013.3
20260502110226 53 1 0.0 0.0 0.00 0.00 0.00 82 1013.2
20260502105734 53 3 0.0 0.0 0.00 0.00 0.00 81 1013.3
20260502105236 53 360 0.0 0.0 0.00 0.00 0.00 82 1013.3
20260502104725 53 358 0.0 0.0 0.00 0.00 0.00 82 1013.2
20260502104227 53 297 0.0 0.0 0.00 0.00 0.00 83 1013.3
20260502103730 53 305 0.0 0.0 0.00 0.00 0.00 84 1013.3
20260502103214 53 305 0.0 0.0 0.00 0.00 0.00 85 1013.2
20260502102742 52 147 0.0 0.0 0.00 0.00 0.00 85 1013.2
20260502102231 52 147 0.0 0.0 0.00 0.00 0.00 85 1013.2
20260502101733 52 147 0.0 0.0 0.00 0.00 0.00 86 1013.2
20260502101215 52 147 0.0 0.0 0.00 0.00 0.00 86 1013.1
20260502100745 52 147 0.0 0.0 0.00 0.00 0.00 86 1013.2
20260502100226 52 147 0.0 0.0 0.00 0.00 0.00 86 1013.2
20260502091225 52 147 0.0 0.0 0.00 0.00 0.00 87 1013.2
20260502090728 52 147 0.0 0.0 0.00 0.00 0.00 87 1013.1
20260502090236 52 147 0.0 0.0 0.00 0.00 0.00 87 1013.0
20260502071228 52 147 0.0 0.0 0.00 0.00 0.00 87 1012.4
20260502070728 52 147 0.0 0.0 0.00 0.00 0.00 87 1012.4
20260502070237 52 147 0.0 0.0 0.00 0.00 0.00 87 1012.3
20260502065718 52 147 0.0 0.0 0.00 0.00 0.00 87 1012.3
20260502065221 52 147 0.0 0.0 0.00 0.00 0.00 87 1012.4
20260502064731 52 147 0.0 0.0 0.00 0.00 0.00 86 1012.3
20260502064213 52 147 0.0 0.0 0.00 0.00 0.00 86 1012.3
20260502063718 52 147 0.0 0.0 0.00 0.00 0.00 86 1012.4
20260502063219 52 147 0.0 0.0 0.00 0.00 0.00 86 1012.4
20260502062728 52 147 0.0 0.0 0.00 0.00 0.00 86 1012.3
20260502062230 52 147 0.0 0.0 0.00 0.00 0.00 86 1012.4
20260502061712 52 147 0.0 0.0 0.00 0.00 0.00 86 1012.5
20260502061220 52 321 0.0 0.0 0.00 0.00 0.00 86 1012.5
20260502060723 52 147 0.0 0.0 0.00 0.00 0.00 86 1012.4
20260502060224 52 147 0.0 0.0 0.00 0.00 0.00 86 1012.4
20260502055732 52 147 0.0 0.0 0.00 0.00 0.00 86 1012.5
20260502055212 52 147 0.0 0.0 0.00 0.00 0.00 86 1012.6
20260502054714 52 147 0.0 0.0 0.00 0.00 0.00 86 1012.6
20260502054223 52 147 0.0 0.0 0.00 0.00 0.00 86 1012.7
20260502053753 52 321 0.0 0.0 0.00 0.00 0.00 86 1012.8
20260502053212 52 147 0.0 0.0 0.00 0.00 0.00 86 1012.7
20260502052713 52 147 0.0 0.0 0.00 0.00 0.00 86 1012.7
20260502052214 52 147 0.0 0.0 0.00 0.00 0.00 86 1012.8
20260502051742 52 147 0.0 0.0 0.00 0.00 0.00 85 1012.8
20260502051228 52 147 0.0 0.0 0.00 0.00 0.00 85 1013.0
20260502050752 52 147 0.0 0.0 0.00 0.00 0.00 85 1013.0
20260502050213 52 147 0.0 0.0 0.00 0.00 0.00 85 1012.9
20260502045720 52 147 0.0 0.0 0.00 0.00 0.00 85 1013.1
20260502045249 52 147 0.0 0.0 0.00 0.00 0.00 85 1013.1
20260502044752 52 147 0.0 0.0 0.00 0.00 0.00 85 1013.1
20260502044238 52 147 0.0 0.0 0.00 0.00 0.00 85 1013.1
20260502043739 52 147 0.0 0.0 0.00 0.00 0.00 84 1013.1
20260502043224 52 147 0.0 0.0 0.00 0.00 0.00 84 1013.1
20260502042727 53 147 0.0 0.0 0.00 0.00 0.00 84 1013.1
20260502042231 53 147 0.0 0.0 0.00 0.00 0.00 84 1013.1
20260502041739 53 147 0.0 0.0 0.00 0.00 0.00 84 1013.2
20260502041218 53 147 0.0 0.0 0.00 0.00 0.00 83 1013.2
20260502040716 53 321 0.0 0.0 0.00 0.00 0.00 83 1013.3
20260502040224 53 321 0.0 0.0 0.00 0.00 0.00 83 1013.4
20260502035725 53 147 0.0 0.0 0.00 0.00 0.00 83 1013.3
20260502035226 53 147 0.0 0.0 0.00 0.00 0.00 82 1013.4
20260502034736 53 147 0.0 0.0 0.00 0.00 0.00 82 1013.4
20260502034217 53 321 0.0 0.0 0.00 0.00 0.00 82 1013.5
20260502033719 53 147 0.0 0.0 0.00 0.00 0.00 82 1013.4
20260502033228 54 147 0.0 0.0 0.00 0.00 0.00 82 1013.3
20260502032731 54 147 0.0 0.0 0.00 0.00 0.00 82 1013.3
20260502032259 54 147 0.0 0.0 0.00 0.00 0.00 81 1013.4
20260502031719 54 321 0.0 0.0 0.00 0.00 0.00 81 1013.3
20260502031248 54 147 0.0 0.0 0.00 0.00 0.00 81 1013.3
20260502030751 54 321 0.0 0.0 0.00 0.00 0.00 81 1013.4
20260502030235 54 321 0.0 0.0 0.00 0.00 0.00 81 1013.4
20260502025716 54 321 0.0 0.0 0.00 0.00 0.00 81 1013.4
20260502025217 54 321 0.0 0.0 0.00 0.00 0.00 81 1013.5
20260502024726 54 321 0.0 0.0 0.00 0.00 0.00 81 1013.5
20260502024247 54 321 0.0 0.0 0.00 0.00 0.00 80 1013.5
20260502023715 54 321 0.0 0.0 0.00 0.00 0.00 80 1013.5
20260502023213 54 321 0.0 0.0 0.00 0.00 0.00 80 1013.4
20260502022715 54 321 0.0 0.0 0.00 0.00 0.00 80 1013.5
20260502022224 54 321 0.0 0.0 0.00 0.00 0.00 80 1013.6
20260502021724 54 147 0.0 0.0 0.00 0.00 0.00 80 1013.7
20260502021227 54 321 0.0 0.0 0.00 0.00 0.00 80 1013.7
20260502020717 54 321 0.0 0.0 0.00 0.00 0.00 80 1013.6
20260502020237 54 321 0.0 0.0 0.00 0.00 0.00 79 1013.6
20260502015744 54 321 0.0 0.0 0.00 0.00 0.00 80 1013.6
20260502015231 54 321 0.0 0.0 0.00 0.00 0.00 80 1013.5
20260502014712 53 321 0.0 0.0 0.00 0.00 0.00 80 1013.5
20260502014213 53 321 0.0 0.0 0.00 0.00 0.00 80 1013.5
20260502013717 53 321 0.0 0.0 0.00 0.00 0.00 80 1013.5
20260502013225 53 321 0.0 0.0 0.00 0.00 0.00 80 1013.5
20260502012728 53 321 0.0 0.0 0.00 0.00 0.00 80 1013.5
20260502012214 53 321 0.0 0.0 0.00 0.00 0.00 80 1013.5
20260502011715 53 321 0.0 0.0 0.00 0.00 0.00 79 1013.6
20260502011218 53 321 0.0 0.0 0.00 0.00 0.00 79 1013.5
20260502010746 53 321 0.0 0.0 0.00 0.00 0.00 79 1013.4
20260502010233 53 321 0.0 0.0 0.00 0.00 0.00 78 1013.2
20260502005715 54 321 0.0 0.0 0.00 0.00 0.00 78 1013.2
20260502005219 54 321 0.0 0.0 0.00 0.00 0.00 78 1013.3
20260502004721 54 321 0.0 0.0 0.00 0.00 0.00 77 1013.3
20260502004229 54 147 0.0 0.0 0.00 0.00 0.00 76 1013.2
20260502003757 54 147 0.0 0.0 0.00 0.00 0.00 76 1013.0
20260502003217 54 321 0.0 0.0 0.00 0.00 0.00 75 1012.9
20260502002740 55 321 0.0 0.0 0.00 0.00 0.00 75 1012.8
20260502002246 55 321 0.0 0.0 0.00 0.00 0.00 75 1012.9
20260502001732 55 321 0.0 0.0 0.00 0.00 0.00 75 1012.8
20260502001215 55 321 0.0 0.0 0.00 0.00 0.00 73 1012.8
20260502000718 55 321 0.0 0.0 0.00 0.00 0.00 73 1012.9
20260502000227 56 321 0.0 0.0 0.00 0.00 0.00 73 1012.8
20260501235726 56 321 0.0 0.0 0.00 0.00 0.00 73 1012.8
20260501235228 56 321 0.0 0.0 0.00 0.00 0.00 72 1012.8
20260501234738 56 321 0.0 0.0 0.00 0.00 0.00 72 1013.0
20260501234219 56 321 0.0 0.0 0.00 0.00 0.00 72 1012.8
20260501233721 56 321 0.0 0.0 0.00 0.00 0.00 72 1012.9
20260501233229 56 321 0.0 0.0 0.00 0.00 0.00 71 1012.8
20260501232729 57 147 0.0 0.0 0.00 0.00 0.00 71 1012.8
20260501232230 57 321 0.0 0.0 0.00 0.00 0.00 71 1012.7
20260501231738 57 147 0.0 0.0 0.00 0.00 0.00 70 1012.6
20260501231219 57 321 0.0 0.0 0.00 0.00 0.00 70 1012.7
20260501230720 57 321 0.0 0.0 0.00 0.00 0.00 70 1012.6
20260501230228 57 321 0.0 0.0 0.00 0.00 0.00 69 1012.7
20260501225733 57 88 0.0 0.0 0.00 0.00 0.00 69 1012.7
20260501225213 57 158 0.0 0.0 0.00 0.00 0.00 69 1012.6
20260501224742 57 154 0.0 0.0 0.00 0.00 0.00 68 1012.7
20260501224229 57 229 0.0 0.0 0.00 0.00 0.00 67 1012.9
20260501223752 57 202 0.0 0.0 0.00 0.00 0.00 67 1012.9
20260501223238 57 224 0.0 0.0 0.00 0.00 0.00 66 1013.0
20260501222740 58 113 0.0 0.0 0.00 0.00 0.00 66 1013.2
20260501222227 58 119 0.0 0.0 0.00 0.00 0.00 66 1013.2